Погода в Акъяре

Погода в Акъяре : погода сейчас, прогноз погоды и архив. Всё, что Вы хотите узнать о погоде в Акъяре!

Поиск расширенной информации на нашем сайте:

Другие новости

Новости СМИ2

Главная страница сайта

Новости сайта

03.07.2017

Напоминаем, что на нашем специализированном сайте Метеоцентр.Азия вы можете получить высокодетализированные автоматические прогнозы погоды по пунктам России, СНГ и мира в авиационном формате (включающие направление и скорость ветра, видимость, явления погоды, количество и форму облачности, нижнюю и верхнюю границу облачности).


Погода в Акъяре - сегодня

Время (UTC), дата Ветер
(°,м/с) 
Видим.   Явления Облачность Т
(°С)
Тd
(°С)
f(%) Тe
(°С)
Pmin
(гПа)
dP
(гПа)
Po
(мм)
O2
(г/м3)
Тmin Tmax R s Состояние
почвы
03 18.10.18 280 (З) 20000 м    1/1 600 м 
[Sc]
-0.4 -3.1 82 -3  1019.9  1.3  733  296  -2        сухая 
06 18.10.18 310 (СЗ) 20000 м    3/0 верхняя 
[Cc]
+6.9 -4 46 +5  1019.1  0.3  733  289           
09 18.10.18 310 (СЗ) 8-14{14}  20000 м    3/0 верхняя 
[Cc]
+9.6 -7.1 30 +7  1018.2  -0.5  733  286           
18 18.10.18 300 (СЗ) 20000 м    3/0 верхняя 
[Ci fib]
+2.2 -3.3 67 +1  1020.7  -0.1  734  294           
21 18.10.18 280 (З) 20000 м    3/0 средняя, верхняя 
[Ac trans|Ci fib]
-0.1 -3.1 80 -1  1021.5  0.4  734  296           
00 19.10.18 280 (З) 20000 м    9/9 600 м кучево-дожд., верхняя 
[Cb cap|Cs]
+3.7 -1.6 68 +2  1021  0.2  734  292           
03 19.10.18 240 (ЮЗ) 20000 м  в посл. час ливневой дождь  9/8 600 м кучево-дожд., верхняя 
[Cb cap|Cs]
+4.5 -2.4 61 +3  1020.6  -0.3  734  291  -0.3    0.0    сухая 
06 19.10.18 270 (З) 7{11}  20000 м  {ливн. осадки}  8/3 600 м средняя, верхняя 
[Sc|Ac lent|Ci sp]
+7.7 -2.4 49 +5  1019  -1.1  733  288           
09 19.10.18 280 (З) 7-12{14}  20000 м    8/4 600 м кучево-дожд., верхняя 
[Cb calv|Cc]
+12.5 -0.4 41 +11  1017.3  -0.9  733  282           
18 19.10.18 230 (ЮЗ) 20000 м    9/0 средняя, верхняя 
[Ac trans|Ci sp]
+7.9 +1.7 65 +9  1017.4  -0.6  732  286           
21 19.10.18 280 (З) 20000 м    ясно 
+8.2 +1.3 62 +8  1017.3  732  286           
00 20.10.18 320 (СЗ) 3{10}  20000 м    ясно 
+6.5 +1.1 68 +6  1017.2  -0.4  732  288           
03 20.10.18 200 (Ю) 2{10}  20000 м    9/8 600 м кучево-дожд., верхняя 
[Cb cap|Ci fib]
+5.1 -0.8 66 +5  1017.1  -0.3  732  289  +4.7        сухая 
06 20.10.18 270 (З) 8-16{15}  20000 м    9/8 600 м кучево-дожд., верхняя 
[Cb cap|Ci fib]
+11.2 -0.3 45 +9  1015  -1.1  731  283           
18 20.10.18 220 (ЮЗ) 20000 м    6/0 верхняя 
[Cs]
+8.2 -6.8 34 +8  1014.6  -0.5  730  286           
21 20.10.18 230 (ЮЗ) 20000 м    9/8 600 м верхняя 
[Sc|Cs]
+6.3 -5.1 44 +5  1014.2  -0.6  730  288           
00 21.10.18 250 (З) 20000 м    8/5 600 м верхняя 
[Sc|Cs]
+6.8 -3.4 48 +7  1014.5  0.3  730  287           
03 21.10.18 310 (СЗ) 20000 м    1/0 верхняя 
[Cc]
+2.2 -3.3 67 +3  1016.8  1.5  731  293  +2.2        сухая 
06 21.10.18 330 (СЗ) 20000 м    6/4 600 м верхняя 
[Cu med, cong|Ci]
+9.4 +0 52 +8  1017  1.2  732  285           
09 21.10.18 330 (СЗ) 20000 м    8/3 600 м верхняя 
[Cu med, cong|Cs]
+10.7 -2.3 40 +10  1017.9  733  284           
12 21.10.18 340 (С) 20000 м    3/1 600 м верхняя 
[Sc|Ci]
+9.8 -3.9 38 +9  1019.2  1.1  734  286           
18 21.10.18 340 (С) 20000 м    9/0 верхняя 
[Cs]
-0.1 -4.7 71 -2  1024.1  1.1  736  297           
21 21.10.18 020 (С) 20000 м    3/0 верхняя 
[Cs]
-2.8 -5.6 81 -2  1026  1.4  737  301           
00 22.10.18 330 (СЗ) 20000 м    ясно 
-5.4 -7.4 86 -7  1027.6  1.2  738  304           
03 22.10.18 350 (С) 20000 м    9/3 600 м верхняя 
[Sc|Cc]
-5.6 -7.6 86 -7  1028.3  0.6  739  305  -6.9        сухая 
Время (UTC), дата Ветер
(°,м/с) 
Видим.   Явления Облачность Т
(°С)
Тd
(°С)
f(%) Тe
(°С)
Pmin
(гПа)
dP
(гПа)
Po
(мм)
O2
(г/м3)
Тmin Tmax R s Состояние
почвы

Для получения пояснительной информации подведите курсор к названию столбца.

ПОГОДА в Акъяре - архив

Всё, что Вы хотите узнать о погоде в Акъяре - удобно и подробно!

Выберите нужную дату (начиная с 1 января 2015* года) и нажмите кнопку "Найти".
Будут отображены архивные сводки погоды по пункту Акъяр, начиная с указанной даты.


Отображать данные в формате CSV (для использования в таблицах Excel)


Внимание! Наш архив погоды предназначен исключительно для личного некоммерческого использования в познавательных целях. Если Вам необходимы официальные справки о состоянии погоды (для производственных, юридических, коммерческих и т.п. целей), обращайтесь в органы Росгидромета.

*Примечание: данная дата относится к архиву по метеостанциям СССР (Россия, СНГ, Балтия).
Архив по метеостанциям Зарубежной Европы и Азии (кроме Китая) хранится 10 дней, по другим регионам земного шара (Китай, Африка, Америка, Австралия, Океания) - 1 день.

Акъяр - район местоположения метеостанции


Название, широта, долгота, высота метеостанции:
Акъяр 51.9°ш. 58.2°д. 341 м над ур. моря [Российская Федерация]

Дополнительная информация

В oтличие oт бoльшинства пoгoдных сайтoв мы публикуем пoдрoбную метеoинфoрмацию в детальнoм прoфессиoнальнoм фoрмате.

Характеристики температуры и влажнoсти вoздуха измеряются на высoте 2 м в тени вдали oт зданий и деревьев.
Скoрoсть ветра измеряется на высoте 10 м (на урoвне рoста челoвека скoрoсть ветра ниже в 1.5-2 раза). Если метеoстанция нахoдится в гoрoде или в лесу, тo скoрoсть ветра занижена на 2-4 м/с пo сравнению с oткрытым местoм. Скoрoсть ветра над акватoриями крупных рек и oзёр, а также на вершинах хoлмoв на 2-5 м/с выше, чем в oбычных услoвиях.
Атмoсфернoе давление в разных тoчках местнoсти мoжет значительнo oтличаться oт давления на метеoстанции, в зависимoсти oт услoвий рельефа (при пoдъёме на 10 м давление пoнижается примернo на 1 мм рт.ст.).